www.pogodaiklimat.ru

Погода и климат >> Архив погоды >> Аргентина >> Сантьяго-дель-Эстеро


ПОГОДА в Сантьяго-дель-Эстеро

  • Прогноз погоды в Сантьяго-дель-Эстеро
  • Монитор погоды в Сантьяго-дель-Эстеро

АРХИВ ПОГОДЫ в Сантьяго-дель-Эстеро

Время (UTC), дата Ветер
(напр.,м/с)
 
Видим.   Явления Облачность Т
(С)
Тd
(С)
f
(%)
Тe
(С)
Тes
(С)
Комфортность P
(гПа)
Po
(гПа)
Тmin
(С)
Tmax
(С)
R
(мм)
R24
(мм)
S
(см)
15 13.09 СВ 4 10 км ясно +19.1 +4.2 37 +19 +29 1020.4 996.9
18 13.09 СВ 4 10 км ясно +24.1 +3.8 27 +24 +32 комфорт 1015.7 992.2
21 13.09 СВ 4 10 км ясно +24.2 +2.6 24 +23 +25 комфорт 1013.6 990.0
00 14.09 В 2 10 км ясно +19.3 +5.6 41 +20 +20 1015.1 991.4 +10.6 +24.4
03 14.09 В 2 10 км ясно +15.6 +4.1 46 +16 +16 1015.6 992.2
06 14.09 штиль 0 10 км ясно +9.0 +5.0 76 +8 +8 1014.4 991.0
09 14.09 штиль 0 10 км ясно +6.4 +3.1 79 +6 +6 1012.2 988.6
12 14.09 Ю 2 10 км ясно +11.4 +3.3 57 +10 +13 1013.3 989.8 +4.8 +19.3
15 14.09 СВ 5 12 км ясно +24.0 +6.3 32 +24 +32 комфорт 1010.4 987.3
18 14.09 С 4 12 км ясно +28.8 +6.4 24 +28 +38 жарко 1007.1 984.0
21 14.09 штиль 0 50 км ?/? +30.0 +7.4 24 +29 +29 жарко 1004.7 981.6
00 15.09 СВ 1 10 км ясно +23.4 +12.7 51 +26 +26 жарко 1005.6 982.4 +11.4 +31.0
03 15.09 С 1 10 км ясно +18.4 +11.1 62 +20 +20 1004.8 982.0
06 15.09 Ю 2 10 км ясно +14.0 +8.0 67 +14 +14 1002.8 980.0
09 15.09 З 1 10 км ясно +12.2 +7.5 73 +12 +12 1002.1 979.3
12 15.09 Ю 2 10 км 3/0
[Cs]
+17.8 +10.4 62 +18 +21 1003.0 980.1 +11.0 +23.4
15 15.09 ЮВ 2 10 км 3/0
[Cs]
+28.8 +16.0 46 +32 +46 душно 1001.2 978.6
18 15.09 С 2 10 км 4/0
[Cs]
+33.0 +16.0 36 +36 +49 очень
душно
998.3 975.8
21 15.09 ЮВ 2 10 км 8/0
[Cs]
+33.8 +15.5 33 +36 +37 очень
душно
997.0 974.5
00 16.09 штиль 0 10 км 5/0
[Cs]
+25.6 +16.7 58 +29 +29 душно 1000.7 978.0 +17.8 +35.2
03 16.09 Ю 2 10 км ясно +22.6 +16.8 70 +27 +27 душно 1002.5 980.0
06 16.09 Ю 4 10 км ясно +21.5 +16.6 74 +25 +25 комфорт 1004.2 981.8
09 16.09 Ю 10 5000 м пыльный позёмок 10/10 900 м
[Sc]
+20.6 +13.6 64 +22 +22 комфорт 1009.2 986.6
12 16.09 Ю 8 10 км 10/6 900 м
[Sc]
+17.6 +8.4 55 +17 +17 1017.5 994.4 +17.6 +25.6
15 16.09 Ю 10 4000 м пыльный позёмок 10/10 1050 м
[Sc]
+16.3 +6.4 52 +14 +14 1021.8 998.4
18 16.09 Ю 9 10 км 10/10 1200 м
[Sc]
+17.7 +4.6 42 +17 +17 1021.0 997.7
21 16.09 Ю 7 10 км 10/9 1200 м
[Sc Ac As]
+18.0 -2.7 24 +17 +17 1021.7 998.2
00 17.09 ЮЗ 3 10 км 10/9 1200 м
[Sc Ac As]
+15.6 +0.3 35 +15 +15 1023.9 1000.2 +15.6 +18.0
03 17.09 З 3 10 км 10/0
[Ac As]
+15.3 -0.5 34 +15 +15 1023.2 999.4
06 17.09 З 2 10 км 10/0
[Ac As]
+15.0 +5.9 54 +15 +15 1020.6 997.0
09 17.09 штиль 0 10 км 10/4 1200 м
[Sc Ac As]
+13.8 +6.9 63 +14 +14 1018.8 995.2
12 17.09 штиль 0 10 км 10/4 1500 м
[Sc Ac As]
+15.2 +6.4 56 +15 +16 1019.1 995.4 +13.8 +15.6
15 17.09 Ю 2 10 км 9/0
[Ac As]
+19.7 -1.2 24 +20 +27 1016.4 993.0
18 17.09 ЮВ 2 10 км 9/0
[Ac As]
+22.8 +1.3 24 +22 +27 комфорт 1011.7 988.5
21 17.09 С 2 10 км 8/0
[Ac und]
+21.5 -0.2 23 +21 +22 комфорт 1009.7 986.5
00 18.09 З 4 10 км 4/0
[Ac As]
+15.4 +1.4 39 +15 +15 1011.8 988.2 +15.2 +22.8
03 18.09 СЗ 2 10 км 4/0
[Ac As]
+12.2 +3.8 56 +12 +12 1013.3 989.8
06 18.09 Ю 1 10 км 9/0
[Ac As]
+14.0 +5.6 57 +14 +14 1013.7 990.4
09 18.09 З 3 10 км 9/0
[Ac As]
+13.0 +3.2 51 +12 +12 1012.0 988.6
12 18.09 СВ 1 12 км ясно +16.8 +3.0 40 +18 +22 1014.5 991.0 +12.0 +16.8
15 18.09 С 2 12 км ясно +25.2 +3.5 24 +24 +41 комфорт 1012.4 989.2
18 18.09 СВ 3 10 км ясно +28.6 +2.8 19 +27 +39 жарко 1006.8 983.8
21 18.09 СВ 4 10 км ясно +28.3 +1.3 17 +26 +27 жарко 1003.1 980.2
00 19.09 В 2 10 км ясно +23.0 +5.2 31 +23 +23 комфорт 1002.8 979.8 +16.8 +30.0
03 19.09 С 3 10 км ясно +21.1 +4.5 34 +21 +21 комфорт 1001.9 979.3
06 19.09 СВ 1 10 км ясно +15.3 +5.8 53 +16 +16 999.7 977.0
09 19.09 Ю 1 10 км ясно +8.0 +3.4 73 +7 +7 999.6 976.6
12 19.09 С 2 12 км ясно +16.2 +4.9 47 +16 +20 1001.1 978.2 +7.4 +23.4
15 19.09 ЮВ 5 10 км ясно +25.8 +7.6 31 +26 +35 жарко 1003.2 980.6
18 19.09 Ю 7 2500 м пыльный позёмок ясно +25.2 -0.1 19 +24 +28 комфорт 1006.3 983.3
21 19.09 Ю 7 5000 м пыльный позёмок ясно +22.6 -3.8 17 +21 +22 комфорт 1009.5 986.1
00 20.09 ЮВ 3 10 км ясно +17.5 -3.4 24 +18 +18 1015.1 991.7 +16.2 +28.4
03 20.09 Ю 3 10 км 4/0
[Ac As]
+14.7 -3.6 28 +14 +14 1019.1 995.8
06 20.09 Ю 3 10 км 4/0
[Ac As]
+12.4 -3.1 34 +12 +12 1020.0 996.6
09 20.09 штиль 0 10 км 6/0
[Ac As]
+10.0 -3.0 40 +10 +10 1021.2 997.6
12 20.09 ЮВ 3 10 км 8/0
[Ac As]
+13.0 -4.4 29 +12 +14 1024.3 1000.5 +9.0 +17.5

 

Местоположение метеостанции Сантьяго-дель-Эстеро (Аргентина): широта -27.76 долгота -64.30 высота над уровнем моря 199 м.

В архиве по умолчанию представлена погода в Сантьяго-дель-Эстеро за последнюю неделю. Архивные данные за месяц целиком и за предыдущие месяцы, начиная с января 2011 года, Вы можете получить, выбрав интересующий диапазон дат из раскрывающегося списка и нажав кнопку "Ввод!".


*Определитесь, кто Вы:
робот инопланетянин человек

Внимание! Время в таблицах - всемирное. Для получения местного времени необходимо прибавить поправку, которая равна -3 ч.

Смотрите также архив погоды в соседних городах и на ближайших метеорологических станциях:

Погода в Сан-Мигель-де-Тукумане (Аргентина) (128 км)
Погода в Сан-Фернандо-дель-Валье-де-Катамарке (Аргентина) (171 км)
Погода в Вилла де Мария дель Рио Секо (Аргентина) (246 км)
Погода в Ла-Риохе (Аргентина) (304 км)
Погода в Сересе (Аргентина) (329 км)
Погода в Сальте (Аргентина) (344 км)
Погода в Чамикале (Аргентина) (347 км)
Погода в Сан-Сальвадор-де-Жужуе (Аргентина) (384 км)
Погода в Пресиденсиа-Роке-Саэнс-Пеньи (Аргентина) (395 км)
Погода в Кордове (Аргентина) (395 км)

Пояснения к столбцам:

Ветер - указаны скорость ветра в м/с - средняя за 10 мин, порывы в срок и между сроками (в фигурных скобках) и направление, откуда дует ветер: С - северный, СВ - северо-восточный, В - восточный, ЮВ - юго-восточный, Ю - южный, ЮЗ - юго-западный, З - западный, СЗ - северо-западный.
Видимость - горизонтальная дальность видимости в метрах или километрах. При видимости от 1 до 10 км при отсутствии осадков обычно наблюдается дымка, при ухудшении видимости до 1 км и менее - туман. В сухую погоду видимость может ухудшаться дымом, пылью или мглою.
Явления - указаны атмосферные явления, наблюдавшиеся в срок или в последний час перед сроком; фигурными скобками обозначены явления, наблюдавшиеся между сроками (за 1-3 часа до срока); квадратными скобками обозначены град или гололедные отложения с указанием их диаметра в мм.
Облачность - указаны через наклонную черту общая и нижняя облачность в баллах и высота нижней границы облаков в метрах; квадратными скобками обозначены формы облаков: Ci - перистые, Cs - перисто-слоистые, Cc - перисто-кучевые, Ac - высококучевые, As - высокослоистые, Sc - слоисто-кучевые, Ns - слоисто-дождевые, Cu - кучевые, Cb - кучево-дождевые. Подробнее классификацию облаков см. в Атласе облаков (PDF).
T - Температура воздуха - температура, измеренная на высоте 2 м над землей.
Td - Температура точки росы - температура, при понижении до которой содержащийся в воздухе водяной пар достигнет насыщения.
f - Относительная влажность воздуха - влажноcть воздуха, измеренная на высоте 2 м над землей.
Te - Эффективная температура - температура, которую ощущает одетый по сезону человек в тени. Характеристика душности погоды. При расчете учитывается влияние влажности воздуха и скорости ветра на теплоощущения человека.
Tes - Эффективная температура на солнце - температура, которую ощущает человек, с поправкой на солнечный нагрев. Характеристика знойности погоды. Зависит от высоты солнца над горизонтом, облачности и скорости ветра. Ночью, в пасмурную погоду, а также при ветре 12 м/с и более поправка равна нулю.
P - Атмосферное давление - приведенное к уровню моря атмосферное давление.
Po - Атмосферное давление - измеренное на уровне метеостанции атмосферное давление.
Tmin - Минимальная температура - минимум температуры воздуха на высоте 2 м над землей.
Tmax - Максимальная температура - максимум температуры воздуха на высоте 2 м над землей.
R - Количество осадков - Количество выпавших осадков за период времени, мм. При наведении курсора мыши на число - период времени, за который выпало указанное количество осадков.
R24 - Количество осадков - Количество выпавших осадков за 24 часа, мм.
S - Снежный покров - Высота снежного покрова, см. При наведении курсора мыши на число - состояние снежного покрова и степень покрытия местности в баллах.